Location: Bailleul
(50.3375°N, 2.8513°E)
Time: 03:11:56
(UTC+00:00)

Cosmos 2016 Rocket - Pass Details

Date: 31 October 2021
Orbit: 946 x 1001 km, 83.0° (Epoch: 26 November)

Event Time Altitude Azimuth Distance (km) Brightness Sun altitude
Rises 20:21:54 0° 226° (SW) 3,639 7.2 -37.5°
Reaches altitude 10° 20:24:50 10° 239° (WSW) 2,689 6.6 -37.9°
Maximum altitude 20:29:55 27° 295° (WNW) 1,766 5.8 -38.6°
Drops below altitude 10° 20:35:00 10° 351° (N) 2,684 6.6 -39.3°
Sets 20:37:57 0° 4° (N) 3,631 7.3 -39.7°
